Regional Weather Roundup
Issued by NWS

Home | Current Version | Previous Version | Graphics & Text | Print | Product List | Glossary On
Versions: 1 2 3 4 5 6 7 8 9 10 11 12 13 14 15 16 17 18 19 20 21 22 23 24 25 26 27 28 29 30 31 32 33 34 35 36 37 38 39 40 41 42 43 44 45 46 47 48 49 50
000
ASUS43 KLSX 270010
RWRMO

WEATHER SUMMARY FOR MISSOURI
NATIONAL WEATHER SERVICE SPRINGFIELD MO
700 PM CDT MON SEP 26 2016

NOTE: "FAIR" INDICATES FEW OR NO CLOUDS BELOW 12,000 FEET WITH NO
       SIGNIFICANT WEATHER AND/OR OBSTRUCTIONS TO VISIBILITY.
       CURRENT SKY AND/OR WEATHER CONDITIONS ARE NOT AVAILABLE FOR
       CHILLICOTHE AND FARMINGTON.

MOZ001>031-035>038-043-044-053-054-270100-
...NORTHERN AND WESTERN MISSOURI...

CITY           SKY/WX    TMP DP  RH WIND       PRES   REMARKS
KANSAS CTY INT CLEAR     64  47  53 SW7       30.12F
6HR MIN TEMP:  64; 6HR MAX TEMP:  73;

KANSAS C DTWN  CLEAR     70  43  37 SW7       30.12F
6HR MIN TEMP:  70; 6HR MAX TEMP:  75;

LEE`S SUMMIT   CLEAR     67  48  50 SW5       30.14F
6HR MIN TEMP:  67; 6HR MAX TEMP:  73;

ST JOSEPH      CLEAR     68  48  48 SW5       30.10F
6HR MIN TEMP:  68; 6HR MAX TEMP:  76;

CHILLICOTHE      N/A     64  49  57 CALM      30.11F
6HR MIN TEMP:  64; 6HR MAX TEMP:  75;

KIRKSVILLE     CLEAR     65  43  44 SW3       30.09F
6HR MIN TEMP:  65; 6HR MAX TEMP:  72;


$$
MOZ066>068-077>081-088>096-101>105-270100-
...SOUTHWEST MISSOURI...

CITY           SKY/WX    TMP DP  RH WIND       PRES   REMARKS
SPRINGFIELD    CLEAR     65  42  43 N6        30.15S
6HR MIN TEMP:  65; 6HR MAX TEMP:  73;

JOPLIN         CLEAR     65  45  48 CALM      30.17F
6HR MIN TEMP:  65; 6HR MAX TEMP:  73;

BRANSON        PTCLDY    64  45  48 N3        30.16R

$$
MOZ032>034-039>042-045>050-055>058-069>072-270100-
...CENTRAL MISSOURI...

CITY           SKY/WX    TMP DP  RH WIND       PRES   REMARKS
COLUMBIA       CLEAR     65  42  43 W5        30.11F
6HR MIN TEMP:  65; 6HR MAX TEMP:  74;

JEFFERSON CITY CLEAR     69  43  38 NW3       30.11S
6HR MIN TEMP:  69; 6HR MAX TEMP:  75;

ROLLA          CLEAR     62  45  53 W3        30.12S
6HR MIN TEMP:  62; 6HR MAX TEMP:  71;

SEDALIA        CLEAR     66  42  41 W6        30.14F
6HR MIN TEMP:  66; 6HR MAX TEMP:  77;

WHITEMAN AFB   CLEAR     66  46  48 SW5       30.13S
OSAGE BEACH    CLEAR     60  51  72 CALM      30.14F

$$
MOZ051-052-059>065-270100-
...EAST CENTRAL MISSOURI...

CITY           SKY/WX    TMP DP  RH WIND       PRES   REMARKS
ST LOUIS INTL  CLEAR     67  37  33 W7        30.09S
6HR MIN TEMP:  67; 6HR MAX TEMP:  76;

SPIRIT OF STL  CLEAR     61  50  67 SW3       30.08F
6HR MIN TEMP:  61; 6HR MAX TEMP:  75;

ST CHARLES     CLEAR     67  42  40 W3        30.08S
6HR MIN TEMP:  67; 6HR MAX TEMP:  74;


$$
MOZ072>076-082>087-097>100-106>115-270100-
...SOUTH CENTRAL AND SOUTHEAST MISSOURI...

CITY           SKY/WX    TMP DP  RH WIND       PRES   REMARKS
CAPE GIRARDEAU NOT AVBL
FARMINGTON     CLEAR     63  47  55 NW5       30.12S
6HR MIN TEMP:  63; 6HR MAX TEMP:  72;

POPLAR BLUFF   CLEAR     66  57  72 CALM      30.09R
6HR MIN TEMP:  66; 6HR MAX TEMP:  76;

WEST PLAINS    CLEAR     64  46  52 NW5       30.16R
6HR MIN TEMP:  64; 6HR MAX TEMP:  74;


$$



USA.gov is the U.S. government's official web portal to all federal, state and local government web resources and services.